FENGYUN 1C DEB

Satellite information

Favourite Embed

Satellite Type and Status

DEBRISIN ORBIT

Key statistics

Satellite FENGYUN 1C DEB at a glance.

Uptime

9656

Days in orbit

Revolutions

≈ 14.2

Per day

Orbit

SSO

Sun Synchronous Orbit

Inclination

99.2

Latest

Satellite identification and parameters

Extended collection of information and parameters for FENGYUN 1C DEB.

Object identification

Identified? True

Debris? True

Object name: FENGYUN 1C DEB

International designator: 1999-025AXY

Object number (NORAD): 30886

Object ID (CCSDS): 30886

Country: PEOPLES REPUBLIC OF CHINA (PRC)

Current information (Y/N): Y

RCS size: SMALL

Orbital parameters

Period: 101.255 minutes

Inclination: 99.2089 deg

SMA: 7196.197 km

Apoapsis: 841.408 km

Periapsis: 794.717 km

RAAN: 179.0228 deg

Eccentricy: 0.0032442

Argument of periapsis: 201.9859 deg

Mean anomaly: 157.9927 deg

Mean motion: 14.22159004 rev/day

Mean motion (dot): 0.00003921 rev/day2

B* drag term: 0.0017806 1/REarth

Two-line elements (TLE)

Creation date: Oct. 16, 2025, 12:16 a.m.

Reference frame: TEME

Reference center: EARTH

Epoch: Oct. 15, 2025, 3:13 p.m. UTC

TLE line 0: 0 FENGYUN 1C DEB

TLE line 1: 1 30886U 99025AXY 25288.63455027 .00003921 00000-0 17806-2 0 9996

TLE line 2: 2 30886 99.2089 179.0228 0032442 201.9859 157.9927 14.22159004955706

Live tracking on map

Real-time ground track for satellite FENGYUN 1C DEB.

In-orbit conjunctions

A list of the most updated potential collisions computed for object FENGYUN 1C DEB.

Target Orbit TCA Probability of collision Miss distance Type
THOR BURNER 2 R/B SSO 2025-01-22 23:58:11 0.0003552302 134.0 (m) ROCKET BODY
CZ-6A DEB LEO 2024-12-04 22:42:10 0.000234014 543.0 (m) DEBRIS
FENGYUN 1C DEB SSO 2024-09-27 22:05:35 0.0001649966 763.0 (m) DEBRIS
SL-16 R/B LEO 2024-07-12 03:43:47 0.0001096995 77.0 (m) ROCKET BODY

Associated space launch

Chinese polar orbiting meteorological satellite

FENGYUN 1C DEB was lifted into orbit during the mission ‘Long March 4B | Feng Yun 1C’, on board a Long March 4B space rocket.

The launch took place on May 10, 1999, 1:33 a.m. from Launch Complex 7.

For more information about the launch, click the button.

Launch to space Long March 4B | Feng Yun 1C
Long March 4B | Feng Yun 1C

Agency: N/A

Status: Launch Successful

Launch date: May 10, 1999, 1:33 a.m. UTC

Rocket: Long March 4B

Launch pad: Launch Complex 7

Location: Taiyuan Satellite Launch Center, People's Republic of China

...

Latest news about this satellite

There are no fresh news available about this satellite. Check back as we update our databases every day.


Newsletter sign-up

Weekly statistics, charts and insights to help you stay on top of the space industry.